Regional Weather Roundup
Issued by NWS

Home | Current Version | Previous Version | Text Only | Print | Product List | Glossary On
Versions: 1 2 3 4 5 6 7 8 9 10 11 12 13 14 15 16 17 18 19 20 21 22 23 24 25 26 27 28 29 30 31 32 33 34 35 36 37 38 39 40 41 42 43 44 45 46 47 48 49 50
147
ASUS44 KFWD 220015
RWRTX
NORTH TEXAS HOURLY WEATHER ROUNDUP
NATIONAL WEATHER SERVICE FORT WORTH TX
600 PM CST TUE NOV 21 2017

NOTE: "FAIR" INDICATES FEW OR NO CLOUDS BELOW 12,000 FEET WITH NO
SIGNIFICANT WEATHER AND/OR OBSTRUCTIONS TO VISIBILITY.

TXZ118-119-220100-
DALLAS/FORT WORTH METROPLEX

CITY           SKY/WX    TMP DP  RH WIND       PRES   REMARKS
DFW AIRPORT    MOCLDY    64  48  56 N14       30.03R
6HR MIN TEMP:  64; 6HR MAX TEMP:  71;

DALLAS LOVE    PTCLDY    64  49  57 N8        30.04R
6HR MIN TEMP:  64; 6HR MAX TEMP:  70;

FTW MEACHAM    CLEAR     63  48  58 N13       30.05R
6HR MIN TEMP:  63; 6HR MAX TEMP:  69;

DAL-EXECUTIVE  PTCLDY    62  51  67 N7        30.03R
6HR MIN TEMP:  62; 6HR MAX TEMP:  71;

FTW-ALLIANCE   PTCLDY    62  45  53 N9        30.06R
6HR MIN TEMP:  62; 6HR MAX TEMP:  69;

FTW-NAS-JRB    CLEAR     63  46  54 N12       30.06R
6HR MIN TEMP:  63; 6HR MAX TEMP:  68;

FTW-SPINKS     CLEAR     61  48  63 N9        30.06R
ARLINGTON      PTCLDY    62  49  62 NW12      30.04R
6HR MIN TEMP:  62; 6HR MAX TEMP:  69;

GRAND PRAIRIE  CLEAR     64  46  52 NW7       30.05R
ADDISON        CLEAR     63  48  59 N13G18    30.05R
MESQUITE       MOCLDY    61  52  72 NW9       30.03R
LANCASTER      PTCLDY    62  51  66 N7        30.03R
6HR MIN TEMP:  62; 6HR MAX TEMP:  69;

$$

TXZ091>094-102>105-117-120-121-131>134-220100-
NORTH CENTRAL TEXAS

CITY           SKY/WX    TMP DP  RH WIND       PRES   REMARKS
SHRMAN/DENISON CLEAR     54  45  70 N5        30.10R
6HR MIN TEMP:  54; 6HR MAX TEMP:  65;

GAINESVILLE    CLEAR     60  38  43 N14       30.11R
6HR MIN TEMP:  59; 6HR MAX TEMP:  66;

BOWIE          CLEAR     60  35  37 N17G24    30.10R
6HR MIN TEMP:  60; 6HR MAX TEMP:  66;

BRIDGEPORT     CLEAR     58  40  51 N5        30.10R
6HR MIN TEMP:  58; 6HR MAX TEMP:  67;

DECATUR        CLEAR     59  42  53 N6        30.07R
6HR MIN TEMP:  59; 6HR MAX TEMP:  66;

DENTON         CLEAR     58  45  62 N6        30.06R
6HR MIN TEMP:  58; 6HR MAX TEMP:  67;

MCKINNEY       CLOUDY    63  50  62 N20       30.05R
6HR MIN TEMP:  63; 6HR MAX TEMP:  68;

BONHAM         PTCLDY    56  47  72 N6        30.08R
6HR MIN TEMP:  55; 6HR MAX TEMP:  61;

GREENVILLE     PTCLDY    61  54  77 N6        30.04R
ROCKWALL       MOCLDY    62  53  73 N5        30.04R
6HR MIN TEMP:  61; 6HR MAX TEMP:  67;

TERRELL        PTCLDY    64  52  64 N6        30.02R
6HR MIN TEMP:  63; 6HR MAX TEMP:  68;

WAXAHACHIE     PTCLDY    60  53  77 N6        30.03R
6HR MIN TEMP:  59; 6HR MAX TEMP:  70;

CLEBURNE       CLEAR     59  48  67 N12       30.05R
GRANBURY       CLEAR     61  47  59 N6        30.07R
6HR MIN TEMP:  61; 6HR MAX TEMP:  71;

$$

TXZ083>090-098>101-113>116-127>130-139>142-154-155-220100-
WESTERN NORTH TEXAS

CITY           SKY/WX    TMP DP  RH WIND       PRES   REMARKS
WICHITA FALLS  PTCLDY    56  30  37 N20       30.16R
6HR MIN TEMP:  56; 6HR MAX TEMP:  70;

WF-KICKAPOO    CLEAR     59  31  34 N22G30    30.18R
6HR MIN TEMP:  59; 6HR MAX TEMP:  69;

VERNON         CLEAR     58  20  22 NE13G21   30.22R
6HR MIN TEMP:  31; 6HR MAX TEMP:  90;

ABILENE        CLEAR     62  29  28 N18G26    30.10R
6HR MIN TEMP:  58; 6HR MAX TEMP:  69;

ABILENE-DYESS  CLEAR     63  34  33 N17       30.10R
6HR MIN TEMP:  59; 6HR MAX TEMP:  68;

GRAHAM           N/A     59  32  35 N18G31    30.10R
6HR MIN TEMP:  59; 6HR MAX TEMP:  68;

BRECKENRIDGE   CLEAR     64  28  25 N18G29    30.10R
6HR MIN TEMP:  64; 6HR MAX TEMP:  70;

CISCO          CLEAR     61  36  39 N10       30.09R
EASTLAND       CLEAR     59  36  42 N10       30.08R
6HR MIN TEMP:  59; 6HR MAX TEMP:  69;

RANGER         CLEAR     59  39  47 N9        30.07R
6HR MIN TEMP:  34; 6HR MAX TEMP:  85;

MINERAL WELLS  CLEAR     59  39  47 N7        30.05R
6HR MIN TEMP:  59; 6HR MAX TEMP:  70;

STEPHENVILLE   CLEAR     60  40  48 N7        30.07R
6HR MIN TEMP:  60; 6HR MAX TEMP:  70;

COMANCHE       CLEAR     59  40  49 N8        30.06R
6HR MIN TEMP:  59; 6HR MAX TEMP:  70;

BROWNWOOD      CLEAR     63  36  36 N8        30.06R
COLEMAN        CLEAR     61  33  35 N13       30.07R
6HR MIN TEMP:  61; 6HR MAX TEMP:  69;

$$

TXZ143>147-156>162-174-175-220100-
CENTRAL TEXAS

CITY           SKY/WX    TMP DP  RH WIND       PRES   REMARKS
WACO           CLOUDY    66  51  58 N9        29.98R
6HR MIN TEMP:  65; 6HR MAX TEMP:  71;

WACO-TSTC      MOCLDY    64  54  68 NE5       29.99R
WACO-MCGREGOR  PTCLDY    64  51  62 N7        29.99R
6HR MIN TEMP:  64; 6HR MAX TEMP:  70;

HILLSBORO      MOCLDY    63  51  67 N7        30.01R
CORSICANA      PTCLDY    63  55  75 NE3       30.00R
6HR MIN TEMP:  63; 6HR MAX TEMP:  70;

MEXIA          MOCLDY    64  55  72 NE6       29.97R
6HR MIN TEMP:  64; 6HR MAX TEMP:  72;

HEARNE         PTCLDY    67  57  70 N5        29.95R
6HR MIN TEMP:  67; 6HR MAX TEMP:  73;

CAMERON        CLOUDY    68  53  57 N7        29.95R
6HR MIN TEMP:  67; 6HR MAX TEMP:  74;

TEMPLE         PTCLDY    66  51  58 N8        29.97R
6HR MIN TEMP:  66; 6HR MAX TEMP:  72;

KILLEEN        CLEAR     64  48  55 NE10      29.97R
KILLEEN-SKYLRK PTCLDY    63  50  62 N9        29.98R
6HR MIN TEMP:  63; 6HR MAX TEMP:  72;

FORT HOOD      PTCLDY    64  49  57 N12       29.94R
6HR MIN TEMP:  64; 6HR MAX TEMP:  72;

GATESVILLE     PTCLDY    63  48  59 N7        30.02R
HAMILTON       CLEAR     61  47  59 NE10      30.03R
6HR MIN TEMP:  61; 6HR MAX TEMP:  71;

LAMPASAS       CLEAR     63  49  60 N8        29.99R
6HR MIN TEMP:  63; 6HR MAX TEMP:  71;

$$

TXZ095>097-106>112-122>126-135>138-148>153-164>167-220100-
EAST TEXAS

CITY           SKY/WX    TMP DP  RH WIND       PRES   REMARKS
PARIS          PTCLDY    55  50  83 N9        30.07R
6HR MIN TEMP:  55; 6HR MAX TEMP:  63;

SULPHUR SPRNGS CLOUDY    63  55  74 N8        30.06R
6HR MIN TEMP:  62; 6HR MAX TEMP:  67;

MOUNT PLEASANT MOCLDY    59  54  83 NE3       30.04R
6HR MIN TEMP:  59; 6HR MAX TEMP:  67;

GILMER         PTCLDY    57  52  81 CALM      30.02R
6HR MIN TEMP:  57; 6HR MAX TEMP:  65;

MINEOLA        PTCLDY    57  54  88 NE3       30.01R
TYLER          CLOUDY    61  55  81 E9        29.99R
6HR MIN TEMP:  61; 6HR MAX TEMP:  68;

LONGVIEW       CLOUDY    59  55  87 E5        30.01R
6HR MIN TEMP:  59; 6HR MAX TEMP:  65;

MARSHALL       CLOUDY    55  49  81 CALM      30.05R
6HR MIN TEMP:  55; 6HR MAX TEMP:  62;

ATHENS         PTCLDY    59  52  77 CALM      29.98R
PALESTINE      CLOUDY    63  58  83 NE5       29.99R
JACKSONVILLE   PTCLDY    58  55  91 NE6       30.01R
HENDERSON      CLOUDY    59  54  82 E6        30.02R
6HR MIN TEMP:  59; 6HR MAX TEMP:  65;

CENTER         CLOUDY    55  52  92 CALM      30.02R
6HR MIN TEMP:  54; 6HR MAX TEMP:  58;

NACOGDOCHES    CLOUDY    60  55  83 E5        30.00R
6HR MIN TEMP:  60; 6HR MAX TEMP:  62; 6HR PCP: TRACE;

LUFKIN         CLOUDY    60  55  83 NE5       29.98R
6HR MIN TEMP:  60; 6HR MAX TEMP:  64;

$$

SUPPLEMENTAL OBSERVATIONS (NWS FORT WORTH AREA)

CITY           SKY/WX    TMP DP  RH WIND       PRES   REMARKS
DENISON DAM      N/A     61  41  48 N8          N/A



USA.gov is the U.S. government's official web portal to all federal, state and local government web resources and services.